N805AB CYKF-ZZZZ

Flight info

Callsign N805AB
Flight time N/A
Altitude 15500
Route VFR DIRECT
Aircraft F16

Departure

Time 2026-05-06 02:18
Airport Region of Waterloo International Airport (CYKF)

Arrival

Time N/A
Airport ZZZZ
Time Latitude Longitude Altitude Speed Heading
2026-05-06 02:07 43.45584 -80.38808 1031 ft 0 kts 137°
2026-05-06 02:09 43.45585 -80.38810 1031 ft 0 kts 248°
2026-05-06 02:15 43.45619 -80.38844 1036 ft 21 kts 329°
2026-05-06 02:15 43.45715 -80.38905 1031 ft 0 kts 335°
2026-05-06 02:16 43.45721 -80.38909 1031 ft 7 kts 336°
2026-05-06 02:17 43.45812 -80.38927 1033 ft 13 kts 64°
2026-05-06 02:17 43.45816 -80.38915 1033 ft 0 kts 65°
2026-05-06 02:18 43.45826 -80.38885 1034 ft 26 kts 65°
2026-05-06 02:18 43.46190 -80.37799 1068 ft 231 kts 65°
2026-05-06 02:18 43.47300 -80.35678 2202 ft 272 kts 24°
2026-05-06 02:18 43.49510 -80.35490 4149 ft 357 kts 349°
2026-05-06 02:19 43.51668 -80.36069 4316 ft 289 kts 347°
2026-05-06 02:19 43.53605 -80.36611 4290 ft 279 kts 347°
2026-05-06 02:19 43.55472 -80.37133 4241 ft 269 kts 347°
2026-05-06 02:19 43.57899 -80.37837 4308 ft 463 kts 346°
2026-05-06 02:20 43.62702 -80.43674 5210 ft 422 kts 287°
2026-05-06 02:20 43.63467 -80.47223 5412 ft 350 kts 286°
2026-05-06 02:20 43.64104 -80.50158 5427 ft 292 kts 274°
2026-05-06 02:21 43.63635 -80.53431 5404 ft 385 kts 257°
2026-05-06 02:21 43.62988 -80.57125 5411 ft 408 kts 255°
2026-05-06 02:21 43.61876 -80.60823 5364 ft 429 kts 238°
2026-05-06 02:21 43.59753 -80.63728 5153 ft 446 kts 215°
2026-05-06 02:22 43.56967 -80.65708 4956 ft 457 kts 207°
2026-05-06 02:22 43.54066 -80.67635 4768 ft 469 kts 207°
2026-05-06 02:22 43.51185 -80.69552 4597 ft 447 kts 207°